******** Week 363 almanac for PRN-1 ******** ID: 1 Health: 0 Eccentricity: 0.001654624939 Time of Applicability(s): 503808 Orbital Inclination(rad): 0.957979391 Rate of Right Ascen(r/s): -7.886042771e-09 SQRT(A) (m 1/2): 5153.574707 Right Ascen at Week(rad): 2.75859705 Argument of Perigee(rad): 0.127457475 Mean Anom(rad): 3.077456079 Af0(s): 0.0002449441528 Af1(s/s): -7.275958e-12 week: 363 ******** Week 363 almanac for PRN-2 ******** ID: 2 Health: 0 Eccentricity: 0.01685476303 Time of Applicability(s): 503808 Orbital Inclination(rad): 0.9631146314 Rate of Right Ascen(r/s): -7.737465153e-09 SQRT(A) (m 1/2): 5153.538574 Right Ascen at Week(rad): 2.596211177 Argument of Perigee(rad): -0.7969464625 Mean Anom(rad): -1.709833185 Af0(s): 5.275720215e-05 Af1(s/s): 7.275958e-12 week: 363 ******** Week 363 almanac for PRN-3 ******** ID: 3 Health: 0 Eccentricity: 0.006595134735 Time of Applicability(s): 503808 Orbital Inclination(rad): 0.9937702787 Rate of Right Ascen(r/s): -7.840326581e-09 SQRT(A) (m 1/2): 5153.569824 Right Ascen at Week(rad): -2.537082135 Argument of Perigee(rad): 1.203303067 Mean Anom(rad): 0.9861402976 Af0(s): 0.000414520874 Af1(s/s): -1.455192e-11 week: 363 ******** Week 363 almanac for PRN-4 ******** ID: 4 Health: 0 Eccentricity: 0.003711700439 Time of Applicability(s): 503808 Orbital Inclination(rad): 0.9705628271 Rate of Right Ascen(r/s): -7.908900866e-09 SQRT(A) (m 1/2): 5153.675781 Right Ascen at Week(rad): -1.466900213 Argument of Perigee(rad): -2.872079795 Mean Anom(rad): -2.337614448 Af0(s): 3.994473877e-05 Af1(s/s): 0 week: 363 ******** Week 363 almanac for PRN-5 ******** ID: 5 Health: 0 Eccentricity: 0.005441665649 Time of Applicability(s): 503808 Orbital Inclination(rad): 0.9803119941 Rate of Right Ascen(r/s): -7.966046103e-09 SQRT(A) (m 1/2): 5153.670898 Right Ascen at Week(rad): -2.597135086 Argument of Perigee(rad): 1.416816265 Mean Anom(rad): -1.665497171 Af0(s): -0.0001823891846 Af1(s/s): 0 week: 363 ******** Week 363 almanac for PRN-6 ******** ID: 6 Health: 0 Eccentricity: 0.003824710846 Time of Applicability(s): 503808 Orbital Inclination(rad): 0.9868194282 Rate of Right Ascen(r/s): -7.600316584e-09 SQRT(A) (m 1/2): 5153.611328 Right Ascen at Week(rad): 2.709834737 Argument of Perigee(rad): -0.5459005445 Mean Anom(rad): 2.282370917 Af0(s): -0.0004838589111 Af1(s/s): 0 week: 363 ******** Week 363 almanac for PRN-7 ******** ID: 7 Health: 0 Eccentricity: 0.02063560486 Time of Applicability(s): 503808 Orbital Inclination(rad): 0.9511843355 Rate of Right Ascen(r/s): -7.794610391e-09 SQRT(A) (m 1/2): 5153.566406 Right Ascen at Week(rad): -0.4581842573 Argument of Perigee(rad): -1.983879452 Mean Anom(rad): 1.436447174 Af0(s): -0.0001311393311 Af1(s/s): -3.637979e-12 week: 363 ******** Week 363 almanac for PRN-8 ******** ID: 8 Health: 0 Eccentricity: 0.01159477234 Time of Applicability(s): 503808 Orbital Inclination(rad): 0.9429212124 Rate of Right Ascen(r/s): -8.137481816e-09 SQRT(A) (m 1/2): 5153.638184 Right Ascen at Week(rad): 1.588304531 Argument of Perigee(rad): 0.5330077656 Mean Anom(rad): -2.03158603 Af0(s): 0.0003723151123 Af1(s/s): -7.275958e-12 week: 363 ******** Week 363 almanac for PRN-9 ******** ID: 9 Health: 0 Eccentricity: 0.00334072113 Time of Applicability(s): 503808 Orbital Inclination(rad): 0.9647564702 Rate of Right Ascen(r/s): -7.988904198e-09 SQRT(A) (m 1/2): 5153.714844 Right Ascen at Week(rad): -1.531337892 Argument of Perigee(rad): 2.055483324 Mean Anom(rad): -1.431471474 Af0(s): 0.0006036931274 Af1(s/s): -3.637979e-12 week: 363 ******** Week 363 almanac for PRN-10 ******** ID: 10 Health: 0 Eccentricity: 0.01092815399 Time of Applicability(s): 503808 Orbital Inclination(rad): 0.9933028939 Rate of Right Ascen(r/s): -7.828897533e-09 SQRT(A) (m 1/2): 5153.605469 Right Ascen at Week(rad): -2.539590583 Argument of Perigee(rad): -2.254884348 Mean Anom(rad): -0.009279160644 Af0(s): -0.0004665244019 Af1(s/s): 0 week: 363 ******** Week 363 almanac for PRN-11 ******** ID: 11 Health: 0 Eccentricity: 0.00221157074 Time of Applicability(s): 503808 Orbital Inclination(rad): 0.9636898742 Rate of Right Ascen(r/s): -7.828897533e-09 SQRT(A) (m 1/2): 5153.541992 Right Ascen at Week(rad): 2.728071357 Argument of Perigee(rad): -2.314269927 Mean Anom(rad): -2.871858087 Af0(s): -0.0003105138184 Af1(s/s): 1.455192e-11 week: 363 ******** Week 363 almanac for PRN-12 ******** ID: 12 Health: 0 Eccentricity: 0.008958339691 Time of Applicability(s): 503808 Orbital Inclination(rad): 0.9592736873 Rate of Right Ascen(r/s): -7.954617056e-09 SQRT(A) (m 1/2): 5153.700195 Right Ascen at Week(rad): 0.6593851623 Argument of Perigee(rad): 1.567945205 Mean Anom(rad): 0.751123655 Af0(s): -0.0004800905395 Af1(s/s): 0 week: 363 ******** Week 363 almanac for PRN-13 ******** ID: 13 Health: 0 Eccentricity: 0.01007652283 Time of Applicability(s): 503808 Orbital Inclination(rad): 0.9761534681 Rate of Right Ascen(r/s): -7.817468486e-09 SQRT(A) (m 1/2): 5153.626465 Right Ascen at Week(rad): -1.355846146 Argument of Perigee(rad): 0.9938517718 Mean Anom(rad): -2.265091537 Af0(s): 0.0005388771362 Af1(s/s): 0 week: 363 ******** Week 363 almanac for PRN-14 ******** ID: 14 Health: 0 Eccentricity: 0.006856918335 Time of Applicability(s): 503808 Orbital Inclination(rad): 0.942633591 Rate of Right Ascen(r/s): -8.091765626e-09 SQRT(A) (m 1/2): 5153.593262 Right Ascen at Week(rad): 0.6043603426 Argument of Perigee(rad): -2.73785348 Mean Anom(rad): 0.6092596436 Af0(s): 0.0005856049438 Af1(s/s): 0 week: 363 ******** Week 363 almanac for PRN-15 ******** ID: 15 Health: 0 Eccentricity: 0.0166425705 Time of Applicability(s): 503808 Orbital Inclination(rad): 0.9427114885 Rate of Right Ascen(r/s): -8.274630386e-09 SQRT(A) (m 1/2): 5153.651855 Right Ascen at Week(rad): -1.676042914 Argument of Perigee(rad): 1.505317519 Mean Anom(rad): -3.024876416 Af0(s): 0.0003142821899 Af1(s/s): 3.637979e-12 week: 363 ******** Week 363 almanac for PRN-16 ******** ID: 16 Health: 0 Eccentricity: 0.01501846313 Time of Applicability(s): 503808 Orbital Inclination(rad): 0.9583868546 Rate of Right Ascen(r/s): -7.977475151e-09 SQRT(A) (m 1/2): 5153.599609 Right Ascen at Week(rad): 0.6763155015 Argument of Perigee(rad): 0.9316397878 Mean Anom(rad): -0.9920563851 Af0(s): 0.0001846502075 Af1(s/s): 7.275958e-12 week: 363 ******** Week 363 almanac for PRN-17 ******** ID: 17 Health: 0 Eccentricity: 0.01260709763 Time of Applicability(s): 503808 Orbital Inclination(rad): 0.9585786022 Rate of Right Ascen(r/s): -7.908900866e-09 SQRT(A) (m 1/2): 5153.552246 Right Ascen at Week(rad): 1.69343914 Argument of Perigee(rad): -1.117424111 Mean Anom(rad): -2.081486845 Af0(s): -7.762845459e-05 Af1(s/s): -1.091394e-11 week: 363 ******** Week 363 almanac for PRN-18 ******** ID: 18 Health: 0 Eccentricity: 0.005802154541 Time of Applicability(s): 503808 Orbital Inclination(rad): 0.9717732339 Rate of Right Ascen(r/s): -7.737465153e-09 SQRT(A) (m 1/2): 5153.591797 Right Ascen at Week(rad): 2.704448202 Argument of Perigee(rad): -2.868562051 Mean Anom(rad): 2.216766648 Af0(s): -0.0003090064697 Af1(s/s): 1.091394e-11 week: 363 ******** Week 363 almanac for PRN-19 ******** ID: 19 Health: 0 Eccentricity: 0.01124763489 Time of Applicability(s): 503808 Orbital Inclination(rad): 0.9577516907 Rate of Right Ascen(r/s): -7.897471818e-09 SQRT(A) (m 1/2): 5153.672852 Right Ascen at Week(rad): 1.737329866 Argument of Perigee(rad): 2.941881539 Mean Anom(rad): -0.2941254614 Af0(s): 0.0005494285767 Af1(s/s): 0 week: 363 ******** Week 363 almanac for PRN-20 ******** ID: 20 Health: 0 Eccentricity: 0.002233505249 Time of Applicability(s): 503808 Orbital Inclination(rad): 0.9601545278 Rate of Right Ascen(r/s): -8.046049436e-09 SQRT(A) (m 1/2): 5153.708008 Right Ascen at Week(rad): -1.525850241 Argument of Perigee(rad): -1.955637877 Mean Anom(rad): 0.6975998595 Af0(s): 6.029394531e-05 Af1(s/s): 2.182787e-11 week: 363 ******** Week 363 almanac for PRN-21 ******** ID: 21 Health: 0 Eccentricity: 0.0008096694946 Time of Applicability(s): 503808 Orbital Inclination(rad): 0.9631685604 Rate of Right Ascen(r/s): -8.148910863e-09 SQRT(A) (m 1/2): 5153.726562 Right Ascen at Week(rad): -2.531588866 Argument of Perigee(rad): -0.2585117155 Mean Anom(rad): 0.3958992444 Af0(s): 0.0003255873047 Af1(s/s): 3.637979e-12 week: 363 ******** Week 363 almanac for PRN-22 ******** ID: 22 Health: 0 Eccentricity: 0.01204633713 Time of Applicability(s): 503808 Orbital Inclination(rad): 0.9578355803 Rate of Right Ascen(r/s): -7.954617056e-09 SQRT(A) (m 1/2): 5153.563477 Right Ascen at Week(rad): 0.6796733316 Argument of Perigee(rad): -0.9935341899 Mean Anom(rad): -1.433901275 Af0(s): -2.185655518e-05 Af1(s/s): 7.275958e-12 week: 363 ******** Week 363 almanac for PRN-23 ******** ID: 23 Health: 0 Eccentricity: 0.006066322327 Time of Applicability(s): 503808 Orbital Inclination(rad): 0.9882874958 Rate of Right Ascen(r/s): -7.874613723e-09 SQRT(A) (m 1/2): 5153.661621 Right Ascen at Week(rad): -2.571786578 Argument of Perigee(rad): -2.73800216 Mean Anom(rad): 1.064903994 Af0(s): 0.0004974250488 Af1(s/s): 3.637979e-12 week: 363 ******** Week 363 almanac for PRN-24 ******** ID: 24 Health: 0 Eccentricity: 0.01795578003 Time of Applicability(s): 503808 Orbital Inclination(rad): 0.9351374583 Rate of Right Ascen(r/s): -7.966046103e-09 SQRT(A) (m 1/2): 5153.594238 Right Ascen at Week(rad): -0.5671167422 Argument of Perigee(rad): 1.138189777 Mean Anom(rad): 2.419220653 Af0(s): -4.974250488e-05 Af1(s/s): 1.818989e-11 week: 363 ******** Week 363 almanac for PRN-25 ******** ID: 25 Health: 0 Eccentricity: 0.0129032135 Time of Applicability(s): 503808 Orbital Inclination(rad): 0.9476849418 Rate of Right Ascen(r/s): -8.057478483e-09 SQRT(A) (m 1/2): 5153.652832 Right Ascen at Week(rad): 0.5652996341 Argument of Perigee(rad): 1.159208235 Mean Anom(rad): 0.6311596911 Af0(s): 0.000342921814 Af1(s/s): -3.637979e-12 week: 363 ******** Week 363 almanac for PRN-26 ******** ID: 26 Health: 0 Eccentricity: 0.01101303101 Time of Applicability(s): 503808 Orbital Inclination(rad): 0.9284922056 Rate of Right Ascen(r/s): -8.240343243e-09 SQRT(A) (m 1/2): 5153.665527 Right Ascen at Week(rad): 0.4903173349 Argument of Perigee(rad): 0.7112236762 Mean Anom(rad): -0.1895780793 Af0(s): -0.0002735837769 Af1(s/s): -3.637979e-12 week: 363 ******** Week 363 almanac for PRN-27 ******** ID: 27 Health: 0 Eccentricity: 0.01438331604 Time of Applicability(s): 503808 Orbital Inclination(rad): 0.952011247 Rate of Right Ascen(r/s): -8.023191341e-09 SQRT(A) (m 1/2): 5153.611816 Right Ascen at Week(rad): 1.620564192 Argument of Perigee(rad): 0.8892785488 Mean Anom(rad): -1.925672446 Af0(s): -6.632333984e-05 Af1(s/s): -1.455192e-11 week: 363 ******** Week 363 almanac for PRN-28 ******** ID: 28 Health: 0 Eccentricity: 0.0004539489746 Time of Applicability(s): 503808 Orbital Inclination(rad): 0.9621019644 Rate of Right Ascen(r/s): -7.691748963e-09 SQRT(A) (m 1/2): 5153.762695 Right Ascen at Week(rad): -0.4836432451 Argument of Perigee(rad): -0.1453536679 Mean Anom(rad): 1.888920199 Af0(s): -0.0004499435669 Af1(s/s): 7.275958e-12 week: 363 ******** Week 363 almanac for PRN-29 ******** ID: 29 Health: 0 Eccentricity: 0.003451347351 Time of Applicability(s): 503808 Orbital Inclination(rad): 0.9612391002 Rate of Right Ascen(r/s): -7.897471818e-09 SQRT(A) (m 1/2): 5153.693359 Right Ascen at Week(rad): 1.710242896 Argument of Perigee(rad): 2.746220342 Mean Anom(rad): -2.073891842 Af0(s): -0.0002773521484 Af1(s/s): 7.275958e-12 week: 363 ******** Week 363 almanac for PRN-30 ******** ID: 30 Health: 0 Eccentricity: 0.008143901825 Time of Applicability(s): 503808 Orbital Inclination(rad): 0.9364437388 Rate of Right Ascen(r/s): -7.954617056e-09 SQRT(A) (m 1/2): 5153.693359 Right Ascen at Week(rad): -0.467544686 Argument of Perigee(rad): -2.301616458 Mean Anom(rad): 1.235569843 Af0(s): 0.0001318930054 Af1(s/s): 1.455192e-11 week: 363 ******** Week 363 almanac for PRN-31 ******** ID: 31 Health: 0 Eccentricity: 0.01083517075 Time of Applicability(s): 503808 Orbital Inclination(rad): 0.9549533742 Rate of Right Ascen(r/s): -7.748894201e-09 SQRT(A) (m 1/2): 5153.531738 Right Ascen at Week(rad): -0.4338618984 Argument of Perigee(rad): 0.9395411371 Mean Anom(rad): 0.3507614103 Af0(s): -0.0001258636108 Af1(s/s): 3.637979e-12 week: 363 ******** Week 363 almanac for PRN-32 ******** ID: 32 Health: 0 Eccentricity: 0.009373664856 Time of Applicability(s): 503808 Orbital Inclination(rad): 0.9677884791 Rate of Right Ascen(r/s): -7.943188008e-09 SQRT(A) (m 1/2): 5153.694336 Right Ascen at Week(rad): -1.514245766 Argument of Perigee(rad): -1.987059392 Mean Anom(rad): -1.365676206 Af0(s): -2.185655518e-05 Af1(s/s): 1.818989e-11 week: 363